H1 CPF 2 NER 2025 3 20 9 079 01 glonass134 H2 1407501 9134 40315 2025 3 20 0 0 0 2025 3 23 23 45 0 900 1 1 0 0 0 1 H9 10 0 60754 0.00000 0 19886490.475 1753978.169 -15913528.332 10 0 60754 900.00000 0 21542595.775 2494124.429 -13482749.033 10 0 60754 1800.00000 0 22955314.760 2994961.359 -10790921.953 10 0 60754 2700.00000 0 24073962.653 3284290.192 -7890284.276 10 0 60754 3600.00000 0 24856548.265 3399195.659 -4837041.644 10 0 60754 4500.00000 0 25271490.051 3384224.319 -1690286.133 10 0 60754 5400.00000 0 25298917.143 3289255.105 1489136.440 10 0 60754 6300.00000 0 24931502.664 3167151.972 4639788.857 10 0 60754 7200.00000 0 24174795.813 3071297.105 7700813.154 10 0 60754 8100.00000 0 23047039.677 3053107.749 10613088.349 10 0 60754 9000.00000 0 21578482.546 3159640.102 13320354.376 10 0 60754 9900.00000 0 19810211.037 3431380.030 15770282.082 10 0 60754 10800.00000 0 17792552.585 3900312.667 17915470.138 10 0 60754 11700.00000 0 15583112.223 4588351.619 19714351.055 10 0 60754 12600.00000 0 13244523.352 5506193.950 21131989.892 10 0 60754 13500.00000 0 10842003.800 6652649.984 22140761.060 10 0 60754 14400.00000 0 8440816.493 8014477.713 22720890.439 10 0 60754 15300.00000 0 6103738.233 9566731.210 22860852.123 10 0 60754 16200.00000 0 3888640.092 11273611.433 22557611.354 10 0 60754 17100.00000 0 1846278.855 13089787.124 21816707.595 10 0 60754 18000.00000 0 18390.916 14962133.871 20652174.358 10 0 60754 18900.00000 0 -1563831.894 16831821.611 19086295.136 10 0 60754 19800.00000 0 -2880820.330 18636665.725 17149197.845 10 0 60754 20700.00000 0 -3925213.475 20313644.896 14878293.282 10 0 60754 21600.00000 0 -4701926.461 21801480.932 12317566.430 10 0 60754 22500.00000 0 -5227696.129 23043172.071 9516732.667 10 0 60754 23400.00000 0 -5530122.870 23988372.088 6530274.293 10 0 60754 24300.00000 0 -5646248.630 24595513.293 3416375.769 10 0 60754 25200.00000 0 -5620731.475 24833581.574 235778.861 10 0 60754 26100.00000 0 -5503694.911 24683466.186 -2949418.794 10 0 60754 27000.00000 0 -5348344.838 24138824.952 -6076996.481 10 0 60754 27900.00000 0 -5208457.460 23206426.499 -9085848.261 10 0 60754 28800.00000 0 -5135847.410 21905953.848 -11917199.276 10 0 60754 29700.00000 0 -5177926.314 20269277.218 -14515774.337 10 0 60754 30600.00000 0 -5375457.998 18339227.054 -16830893.872 10 0 60754 31500.00000 0 -5760607.731 16167919.965 -18817474.117 10 0 60754 32400.00000 0 -6355369.797 13814709.526 -20436911.005 10 0 60754 33300.00000 0 -7170440.821 11343849.659 -21657830.115 10 0 60754 34200.00000 0 -8204586.708 8821970.281 -22456688.357 10 0 60754 35100.00000 0 -9444529.433 6315472.132 -22818216.586 10 0 60754 36000.00000 0 -10865357.497 3887950.385 -22735695.963 10 0 60754 36900.00000 0 -12431441.509 1597754.542 -22211064.450 10 0 60754 37800.00000 0 -14097815.002 -504214.530 -21254853.331 10 0 60754 38700.00000 0 -15811961.288 -2376380.385 -19885956.970 10 0 60754 39600.00000 0 -17515930.395 -3987963.882 -18131242.135 10 0 60754 40500.00000 0 -19148696.825 -5319994.852 -16025006.086 10 0 60754 41400.00000 0 -20648659.372 -6365823.785 -13608295.237 10 0 60754 42300.00000 0 -21956178.762 -7131115.630 -10928098.513 10 0 60754 43200.00000 0 -23016047.915 -7633329.330 -8036431.597 10 0 60754 44100.00000 0 -23779792.760 -7900707.767 -4989329.908 10 0 60754 45000.00000 0 -24207708.939 -7970822.781 -1845769.612 10 0 60754 45900.00000 0 -24270550.856 -7888737.899 1333463.036 10 0 60754 46800.00000 0 -23950803.967 -7704866.783 4486933.050 10 0 60754 47700.00000 0 -23243488.428 -7472617.533 7553727.433 10 0 60754 48600.00000 0 -22156461.307 -7245921.402 10474613.988 10 0 60754 49500.00000 0 -20710205.040 -7076748.949 13193167.369 10 0 60754 50400.00000 0 -18937110.557 -7012716.972 15656842.141 10 0 60754 51300.00000 0 -16880283.990 -7094885.722 17817973.689 10 0 60754 52200.00000 0 -14591924.988 -7355838.158 19634689.072 10 0 60754 53100.00000 0 -12131342.070 -7818121.613 21071711.353 10 0 60754 54000.00000 0 -9562685.100 -8493117.551 22101042.705 10 0 60754 54900.00000 0 -6952486.528 -9380387.960 22702513.431 10 0 60754 55800.00000 0 -4367111.132 -10467527.535 22864186.086 10 0 60754 56700.00000 0 -1870218.020 -11730530.324 22582606.152 10 0 60754 57600.00000 0 479661.307 -13134658.411 21862893.099 10 0 60754 58500.00000 0 2631329.154 -14635779.343 20718668.275 10 0 60754 59400.00000 0 4542820.634 -16182119.347 19171818.883 10 0 60754 60300.00000 0 6182916.080 -17716361.490 17252100.218 10 0 60754 61200.00000 0 7532202.878 -19178002.789 14996581.607 10 0 60754 62100.00000 0 8583641.194 -20505872.431 12448944.642 10 0 60754 63000.00000 0 9342608.662 -21640705.478 9658645.658 10 0 60754 63900.00000 0 9826421.032 -22527662.955 6679957.692 10 0 60754 64800.00000 0 10063348.320 -23118690.531 3570910.197 10 0 60754 65700.00000 0 10091167.864 -23374614.103 392147.560 10 0 60754 66600.00000 0 9955316.048 -23266881.193 -2794270.156 10 0 60754 67500.00000 0 9706718.250 -22778872.029 -5926099.086 10 0 60754 68400.00000 0 9399390.978 -21906722.557 -8942149.824 10 0 60754 69300.00000 0 9087920.273 -20659622.831 -11783505.423 10 0 60754 70200.00000 0 8824926.075 -19059577.096 -14394692.944 10 0 60754 71100.00000 0 8658622.713 -17140635.372 -16724783.536 10 0 60754 72000.00000 0 8630581.311 -14947629.373 -18728397.841 10 0 60754 72900.00000 0 8773790.718 -12534466.974 -20366596.006 10 0 60754 73800.00000 0 9111100.157 -9962058.262 -21607634.558 10 0 60754 74700.00000 0 9654109.818 -7295961.688 -22427575.604 10 0 60754 75600.00000 0 10402555.881 -4603850.164 -22810737.428 10 0 60754 76500.00000 0 11344214.932 -1952903.904 -22749979.079 10 0 60754 77400.00000 0 12455330.384 592760.887 -22246815.191 10 0 60754 78300.00000 0 13701541.314 2974520.798 -21311360.753 10 0 60754 79200.00000 0 15039273.024 5141431.614 -19962108.876 10 0 60754 80100.00000 0 16417529.469 7052083.337 -18225547.736 10 0 60754 81000.00000 0 17780011.260 8676049.310 -16135625.775 10 0 60754 81900.00000 0 19067469.769 9994872.284 -13733076.831 10 0 60754 82800.00000 0 20220198.598 11002549.667 -11064619.239 10 0 60754 83700.00000 0 21180558.411 11705501.171 -8182045.014 10 0 60754 84600.00000 0 21895430.248 12122023.325 -5141216.855 10 0 60754 85500.00000 0 22318495.788 12281256.329 -2000992.261 10 0 60755 0.00000 0 22412250.471 12221708.620 1177904.744 10 0 60755 900.00000 0 22149666.617 11989402.199 4334045.038 10 0 60755 1800.00000 0 21515438.094 11635717.277 7406463.365 10 0 60755 2700.00000 0 20506755.532 11215026.465 10335819.303 10 0 60755 3600.00000 0 19133579.802 10782217.252 13065525.074 10 0 60755 4500.00000 0 17418402.184 10390205.763 15542821.628 10 0 60755 5400.00000 0 15395500.284 10087545.032 17719783.517 10 0 60755 6300.00000 0 13109719.085 9916227.104 19554234.571 10 0 60755 7200.00000 0 10614825.781 9909770.434 21010557.838 10 0 60755 8100.00000 0 7971504.235 10091672.574 22060384.959 10 0 60755 9000.00000 0 5245069.621 10474293.428 22683152.065 10 0 60755 9900.00000 0 2502995.423 11058217.037 22866511.232 10 0 60755 10800.00000 0 -187647.088 11832120.422 22606588.845 10 0 60755 11700.00000 0 -2762732.676 12773157.407 21908084.598 10 0 60755 12600.00000 0 -5163505.048 13847844.039 20784207.421 10 0 60755 13500.00000 0 -7338778.907 15013411.353 19256447.458 10 0 60755 14400.00000 0 -9246829.573 16219571.395 17354186.160 10 0 60755 15300.00000 0 -10856890.798 17410624.479 15114149.703 10 0 60755 16200.00000 0 -12150197.187 18527820.609 12579714.235 10 0 60755 17100.00000 0 -13120526.314 19511876.233 9800074.689 10 0 60755 18000.00000 0 -13774216.495 20305539.926 6829292.250 10 0 60755 18900.00000 0 -14129658.506 20856097.475 3725238.604 10 0 60755 19800.00000 0 -14216282.119 21117708.577 548457.879 10 0 60755 20700.00000 0 -14073080.429 21053473.842 -2639030.382 10 0 60755 21600.00000 0 -13746735.235 20637141.952 -5774962.138 10 0 60755 22500.00000 0 -13289424.423 19854382.130 -8798067.463 10 0 60755 23400.00000 0 -12756406.419 18703565.847 -11649290.175 10 0 60755 24300.00000 0 -12203486.607 17196023.087 -14272962.286 10 0 60755 25200.00000 0 -11684475.719 15355761.405 -16617908.154 10 0 60755 26100.00000 0 -11248750.326 13218659.510 -18638455.042 10 0 60755 27000.00000 0 -10939020.720 10831169.802 -20295329.243 10 0 60755 27900.00000 0 -10789401.963 8248585.408 -21556419.836 10 0 60755 28800.00000 0 -10823870.224 5532945.750 -22397395.411 10 0 60755 29700.00000 0 -11055169.352 2750669.592 -22802162.605 10 0 60755 30600.00000 0 -11484212.886 -29984.425 -22763158.913 10 0 60755 31500.00000 0 -12100005.161 -2741523.229 -22281475.810 10 0 60755 32400.00000 0 -12880082.965 -5319782.227 -21366811.746 10 0 60755 33300.00000 0 -13791457.143 -7706339.822 -20037257.908 10 0 60755 34200.00000 0 -14792012.643 -9850684.598 -18318922.804 10 0 60755 35100.00000 0 -15832306.528 -11712047.288 -16245404.608 10 0 60755 36000.00000 0 -16857687.293 -13260824.113 -13857122.801 10 0 60755 36900.00000 0 -17810645.836 -14479535.359 -11200523.103 10 0 60755 37800.00000 0 -18633299.325 -15363282.550 -8327171.620 10 0 60755 38700.00000 0 -19269904.188 -15919688.355 -5292755.969 10 0 60755 39600.00000 0 -19669293.649 -16168324.552 -2156012.510 10 0 60755 40500.00000 0 -19787138.728 -16139654.338 1022400.083 10 0 60755 41400.00000 0 -19587939.200 -15873534.917 4181060.014 10 0 60755 42300.00000 0 -19046662.221 -15417344.037 7258952.999 10 0 60755 43200.00000 0 -18149960.950 -14823809.252 10196633.085 10 0 60755 44100.00000 0 -16896922.596 -14148630.522 12937352.736 10 0 60755 45000.00000 0 -15299314.526 -13447994.950 15428141.891 10 0 60755 45900.00000 0 -13381317.353 -12776086.693 17620816.724 10 0 60755 46800.00000 0 -11178754.666 -12182695.164 19472900.082 10 0 60755 47700.00000 0 -8737849.405 -11711020.671 20948436.945 10 0 60755 48600.00000 0 -6113556.021 -11395768.692 22018690.048 10 0 60755 49500.00000 0 -3367534.823 -11261612.440 22662702.606 10 0 60755 50400.00000 0 -565849.638 -11322088.540 22867717.094 10 0 60755 51300.00000 0 2223518.506 -11578973.241 22629441.321 10 0 60755 52200.00000 0 4933240.985 -12022167.031 21952155.373 10 0 60755 53100.00000 0 7499189.683 -12630094.747 20848655.603 10 0 60755 54000.00000 0 9862858.911 -13370606.893 19340034.638 10 0 60755 54900.00000 0 11973560.893 -14202346.830 17455299.292 10 0 60755 55800.00000 0 13790303.004 -15076528.588 15230831.492 10 0 60755 56700.00000 0 15283267.567 -15939052.161 12709700.490 10 0 60755 57600.00000 0 16434831.015 -16732868.079 9940838.003 10 0 60755 58500.00000 0 17240078.260 -17400491.489 6978091.190 10 0 60755 59400.00000 0 17706789.359 -17886558.707 3879171.462 10 0 60755 60300.00000 0 17854898.114 -18140316.416 704519.903 10 0 60755 61200.00000 0 17715445.086 -18117935.810 -2483887.448 10 0 60755 62100.00000 0 17329069.631 -17784551.019 -5623769.467 10 0 60755 63000.00000 0 16744105.841 -17115932.663 -8653778.803 10 0 60755 63900.00000 0 16014364.754 -16099723.093 -11514723.069 10 0 60755 64800.00000 0 15196698.997 -14736178.956 -14150742.120 10 0 60755 65700.00000 0 14348455.514 -13038388.200 -16510416.227 10 0 60755 66600.00000 0 13524926.649 -11031951.655 -18547781.746 10 0 60755 67500.00000 0 12776909.585 -8754142.584 -20223233.291 10 0 60755 68400.00000 0 12148478.859 -6252580.120 -21504294.350 10 0 60755 69300.00000 0 11675066.876 -3583473.333 -22366241.472 10 0 60755 70200.00000 0 11381933.386 -809510.639 -22792570.738 10 0 60755 71100.00000 0 11283087.637 2002516.092 -22775298.772 10 0 60755 72000.00000 0 11380707.072 4784252.727 -22315094.169 10 0 60755 72900.00000 0 11665074.998 7468383.183 -21421238.733 10 0 60755 73800.00000 0 12115037.509 9991180.946 -20111421.266 10 0 60755 74700.00000 0 12698958.082 12294906.708 -18411369.802 10 0 60755 75600.00000 0 13376127.525 14329954.134 -16354331.098 10 0 60755 76500.00000 0 14098568.253 16056656.885 -13980408.819 10 0 60755 77400.00000 0 14813155.769 17446684.462 -11335774.262 10 0 60755 78300.00000 0 15463967.568 18483971.824 -8471765.519 10 0 60755 79200.00000 0 15994760.663 19165147.092 -5443892.707 10 0 60755 80100.00000 0 16351474.137 19499442.401 -2310768.383 10 0 60755 81000.00000 0 16484652.435 19508094.077 867016.696 10 0 60755 81900.00000 0 16351688.762 19223259.164 4028051.594 10 0 60755 82800.00000 0 15918795.572 18686494.842 7111275.698 10 0 60755 83700.00000 0 15162620.469 17946864.929 10057140.452 10 0 60755 84600.00000 0 14071440.418 17058752.583 12808741.367 10 0 60755 85500.00000 0 12645884.348 16079470.082 15312900.015 10 0 60756 0.00000 0 10899153.535 15066764.684 17521176.464 10 0 60756 900.00000 0 8856728.299 14076323.085 19390795.199 10 0 60756 1800.00000 0 6555573.686 13159378.904 20885464.921 10 0 60756 2700.00000 0 4042871.584 12360520.354 21976081.180 10 0 60756 3600.00000 0 1374331.277 11715790.441 22641295.693 10 0 60756 4500.00000 0 -1387855.376 11251158.452 22867942.403 10 0 60756 5400.00000 0 -4177332.241 10981427.260 22651311.202 10 0 60756 6300.00000 0 -6926077.292 10909623.273 21995262.778 10 0 60756 7200.00000 0 -9566979.679 11026896.251 20912180.623 10 0 60756 8100.00000 0 -12036390.039 11312935.220 19422759.043 10 0 60756 9000.00000 0 -14276538.880 11736885.230 17555628.920 10 0 60756 9900.00000 0 -16237722.347 12258728.531 15346826.164 10 0 60756 10800.00000 0 -17880163.495 12831073.753 12839110.972 10 0 60756 11700.00000 0 -19175470.082 13401278.802 10081149.386 10 0 60756 12600.00000 0 -20107626.216 13913818.182 7126571.859 10 0 60756 13500.00000 0 -20673474.672 14312794.170 4032926.718 10 0 60756 14400.00000 0 -20882668.232 14544484.177 860549.127 10 0 60756 15300.00000 0 -20757091.233 14559814.304 -2328631.269 10 0 60756 16200.00000 0 -20329775.540 14316651.665 -5472319.137 10 0 60756 17100.00000 0 -19643357.302 13781815.447 -8509092.531 10 0 60756 18000.00000 0 -18748141.049 12932718.674 -11379625.604 10 0 60756 18900.00000 0 -17699854.926 11758568.703 -14027868.651 10 0 60756 19800.00000 0 -16557194.310 10261073.695 -16402160.263 10 0 60756 20700.00000 0 -15379260.102 8454624.008 -18456248.030 10 0 60756 21600.00000 0 -14223002.196 6365940.349 -20150196.722 10 0 60756 22500.00000 0 -13140777.817 4033203.611 -21451165.715 10 0 60756 23400.00000 0 -12178128.877 1504703.695 -22334040.630 10 0 60756 24300.00000 0 -11371872.234 -1162935.055 -22781907.717 10 0 60756 25200.00000 0 -10748582.718 -3906876.450 -22786363.066 10 0 60756 26100.00000 0 -10323531.303 -6660453.458 -22347652.348 10 0 60756 27000.00000 0 -10100121.023 -9355707.721 -21474640.294 10 0 60756 27900.00000 0 -10069841.789 -11925981.774 -20184612.531 10 0 60756 28800.00000 0 -10212743.277 -14308456.612 -18502915.486 10 0 60756 29700.00000 0 -10498403.351 -16446530.295 -16462443.072 10 0 60756 30600.00000 0 -10887348.907 -18291940.511 -14102981.450 10 0 60756 31500.00000 0 -11332867.524 -19806545.088 -11470425.628 10 0 60756 32400.00000 0 -11783132.455 -20963689.087 -8615883.669 10 0 60756 33300.00000 0 -12183550.933 -21749104.333 -5594686.088 10 0 60756 34200.00000 0 -12479236.999 -22161306.661 -2465319.472 10 0 60756 35100.00000 0 -12617505.380 -22211476.791 711695.555 10 0 60756 36000.00000 0 -12550282.408 -21922831.852 3874961.198 10 0 60756 36900.00000 0 -12236333.723 -21329515.244 6963372.863 10 0 60756 37800.00000 0 -11643216.210 -20475051.999 9917281.791 10 0 60756 38700.00000 0 -10748873.027 -19410434.322 12679628.990 10 0 60756 39600.00000 0 -9542805.173 -18191916.798 15197030.099 10 0 60756 40500.00000 0 -8026770.291 -16878612.372 17420791.815 10 0 60756 41400.00000 0 -6214978.465 -15529988.195 19307841.706 10 0 60756 42300.00000 0 -4133775.185 -14203364.420 20821554.637 10 0 60756 43200.00000 0 -1820822.320 -12951518.983 21932460.740 10 0 60756 44100.00000 0 676191.719 -11820497.221 22618821.683 10 0 60756 45000.00000 0 3301262.161 -10847717.109 22867063.990 10 0 60756 45900.00000 0 5992130.671 -10060449.124 22672060.407 10 0 60756 46800.00000 0 8682618.226 -9474734.748 22037252.648 10 0 60756 47700.00000 0 11305133.852 -9094789.926 20974611.428 10 0 60756 48600.00000 0 13793257.033 -8912919.975 19504432.490 10 0 60756 49500.00000 0 16084287.694 -8909951.346 17654970.208 10 0 60756 50400.00000 0 18121657.930 -9056163.984 15461913.547 10 0 60756 51300.00000 0 19857104.474 -9312686.730 12967712.366 10 0 60756 52200.00000 0 21252510.053 -9633298.174 10220765.350 10 0 60756 53100.00000 0 22281334.879 -9966557.545 7274484.182 10 0 60756 54000.00000 0 22929576.446 -10258175.274 4186251.650 10 0 60756 54900.00000 0 23196215.547 -10453521.889 1016294.224 10 0 60756 55800.00000 0 23093128.370 -10500167.064 -2173507.875 10 0 60756 56700.00000 0 22644467.590 -10350338.759 -5320848.283 10 0 60756 57600.00000 0 21885538.551 -9963195.356 -8364233.662 10 0 60756 58500.00000 0 20861218.739 -9306811.505 -11244207.830 10 0 60756 59400.00000 0 19623988.768 -8359790.828 -13904534.497 10 0 60756 60300.00000 0 18231660.056 -7112434.885 -16293313.304 10 0 60756 61200.00000 0 16744897.412 -5567417.302 -18364005.553 10 0 60756 62100.00000 0 15224643.360 -3739933.623 -20076348.352 10 0 60756 63000.00000 0 13729554.729 -1657320.319 -21397138.835 10 0 60756 63900.00000 0 12313560.899 641840.688 -22300873.235 10 0 60756 64800.00000 0 11023647.032 3109093.571 -22770229.159 10 0 60756 65700.00000 0 9897955.210 5687897.759 -22796382.993 10 0 60756 66600.00000 0 8964282.109 8315758.822 -22379157.928 10 0 60756 67500.00000 0 8239034.311 10926611.302 -21527001.703 10 0 60756 68400.00000 0 7726682.536 13453353.752 -20256796.473 10 0 60756 69300.00000 0 7419734.765 15830430.442 -18593506.398 10 0 60756 70200.00000 0 7299226.295 17996353.038 -16569671.524 10 0 60756 71100.00000 0 7335703.272 19896058.597 -14224759.133 10 0 60756 72000.00000 0 7490655.840 21483007.614 -11604386.207 10 0 60756 72900.00000 0 7718338.706 22720937.012 -8759428.705 10 0 60756 73800.00000 0 7967901.272 23585197.621 -5745035.144 10 0 60756 74700.00000 0 8185737.123 24063622.896 -2619563.466 10 0 60756 75600.00000 0 8317954.035 24156895.072 556538.743 10 0 60756 76500.00000 0 8312861.129 23878395.526 3721889.864 10 0 60756 77400.00000 0 8123369.428 23253547.105 6815344.410 10 0 60756 78300.00000 0 7709205.908 22318676.825 9777156.484 10 0 60756 79200.00000 0 7038848.896 21119446.667 12550115.551 10 0 60756 80100.00000 0 6091104.187 19708917.609 15080634.131 10 0 60756 81000.00000 0 4856255.833 18145326.738 17319767.975 10 0 60756 81900.00000 0 3336742.831 16489668.794 19224150.513 10 0 60756 82800.00000 0 1547332.081 14803181.412 20756824.688 10 0 60756 83700.00000 0 -485221.641 13144837.211 21887957.039 10 0 60756 84600.00000 0 -2723017.239 11568945.770 22595420.680 10 0 60756 85500.00000 0 -5118318.422 10122964.298 22865235.831 10 0 60757 0.00000 0 -7615283.007 8845607.710 22691858.805 10 0 60757 900.00000 0 -10152043.194 7765336.219 22078312.500 10 0 60757 1800.00000 0 -12663049.944 6899285.761 21036154.524 10 0 60757 2700.00000 0 -15081590.882 6252684.734 19585281.182 10 0 60757 3600.00000 0 -17342375.334 5818784.612 17753568.924 10 0 60757 4500.00000 0 -19384080.913 5579308.250 15576357.857 10 0 60757 5400.00000 0 -21151755.120 5505398.700 13095785.148 10 0 60757 6300.00000 0 -22598970.693 5559029.849 10359979.427 10 0 60757 7200.00000 0 -23689642.923 5694820.110 7422130.667 10 0 60757 8100.00000 0 -24399430.751 5862172.554 4339453.043 10 0 60757 9000.00000 0 -24716660.751 6007650.182 1172061.208 10 0 60757 9900.00000 0 -24642733.249 6077484.157 -2018217.151 10 0 60757 10800.00000 0 -24191992.117 6020106.457 -5169067.673 10 0 60757 11700.00000 0 -23391063.037 5788596.789 -8218928.566 10 0 60757 12600.00000 0 -22277688.269 5342937.088 -11108216.114 10 0 60757 13500.00000 0 -20899107.994 4651975.094 -13780510.058 10 0 60757 14400.00000 0 -19310058.084 3695011.274 -16183673.487 10 0 60757 15300.00000 0 -17570470.785 2462939.913 -18270883.496 10 0 60757 16200.00000 0 -15742977.381 958894.784 -20001551.254 10 0 60757 17100.00000 0 -13890320.022 -801628.477 -21342112.949 10 0 60757 18000.00000 0 -12072783.211 -2791178.400 -22266676.264 10 0 60757 18900.00000 0 -10345753.784 -4971264.451 -22757510.533 10 0 60757 19800.00000 0 -8757511.884 -7293745.196 -22805372.346 10 0 60757 20700.00000 0 -7347344.784 -9702628.569 -22409661.905 10 0 60757 21600.00000 0 -6144060.918 -12136208.010 -21578409.060 10 0 60757 22500.00000 0 -5164963.940 -14529444.558 -20328091.257 10 0 60757 23400.00000 0 -4415326.848 -16816495.215 -18683288.877 10 0 60757 24300.00000 0 -3888384.925 -18933282.462 -16676186.363 10 0 60757 25200.00000 0 -3565844.524 -20819998.709 -14345930.216 10 0 60757 26100.00000 0 -3418883.313 -22423442.674 -11737857.383 10 0 60757 27000.00000 0 -3409597.396 -23699092.205 -8902609.657 10 0 60757 27900.00000 0 -3492832.573 -24612829.272 -5895151.476 10 0 60757 28800.00000 0 -3618321.519 -25142247.476 -2773710.062 10 0 60757 29700.00000 0 -3733036.412 -25277489.764 401342.091 10 0 60757 30600.00000 0 -3783658.195 -25021583.357 3568641.604 10 0 60757 31500.00000 0 -3719059.120 -24390259.450 6667004.170 10 0 60757 32400.00000 0 -3492695.071 -23411266.231 9636588.850 10 0 60757 33300.00000 0 -3064808.036 -22123204.210 12420035.677 10 0 60757 34200.00000 0 -2404347.006 -20573932.206 14963556.144 10 0 60757 35100.00000 0 -1490527.067 -18818609.556 17217957.103 10 0 60757 36000.00000 0 -313961.166 -16917454.744 19139579.772 10 0 60757 36900.00000 0 1122683.678 -14933312.119 20691136.917 10 0 60757 37800.00000 0 2804534.796 -12929126.109 21842433.003 10 0 60757 38700.00000 0 4704875.555 -10965426.234 22570953.825 10 0 60757 39600.00000 0 6786008.087 -9097926.017 22862314.226 10 0 60757 40500.00000 0 9000584.417 -7375334.587 22710554.620 10 0 60757 41400.00000 0 11293353.915 -5837471.468 22118279.449 10 0 60757 42300.00000 0 13603257.554 -4513763.144 21096633.202 10 0 60757 43200.00000 0 15865784.547 -3422184.672 19665112.426 10 0 60757 44100.00000 0 18015495.312 -2568691.578 17851215.037 10 0 60757 45000.00000 0 19988606.759 -1947167.187 15689931.376 10 0 60757 45900.00000 0 21725532.308 -1539888.943 13223084.702 10 0 60757 46800.00000 0 23173269.819 -1318495.411 10498532.059 10 0 60757 47700.00000 0 24287536.010 -1245414.041 7569239.839 10 0 60757 48600.00000 0 25034555.877 -1275689.707 4492251.419 10 0 60757 49500.00000 0 25392429.685 -1359136.238 1327567.131 10 0 60757 50400.00000 0 25352017.746 -1442718.622 -1863040.597 10 0 60757 51300.00000 0 24917303.864 -1473062.962 -5017252.294 10 0 60757 52200.00000 0 24105220.766 -1398985.228 -8073440.655 10 0 60757 53100.00000 0 22944944.340 -1173928.705 -10971897.318 10 0 60757 54000.00000 0 21476686.678 -758203.788 -13656020.804 10 0 60757 54900.00000 0 19750039.822 -120932.518 -16073440.192 10 0 60757 55800.00000 0 17821941.608 758386.825 -18177050.677 10 0 60757 56700.00000 0 15754351.195 1888762.891 -19925939.543 10 0 60757 57600.00000 0 13611734.027 3267090.326 -21286183.841 10 0 60757 58500.00000 0 11458463.656 4878051.144 -22231504.254 10 0 60757 59400.00000 0 9356250.632 6694542.190 -22743763.140 10 0 60757 60300.00000 0 7361706.702 8678609.885 -22813298.302 10 0 60757 61200.00000 0 5524145.922 10782851.888 -22439087.657 10 0 60757 62100.00000 0 3883713.375 12952225.829 -21628743.522 10 0 60757 63000.00000 0 2469917.627 15126188.455 -20398338.644 10 0 60757 63900.00000 0 1300625.499 17241075.102 -18772069.242 10 0 60757 64800.00000 0 381557.926 19232619.988 -16781763.393 10 0 60757 65700.00000 0 -293695.487 21038512.480 -14466245.662 10 0 60757 66600.00000 0 -743147.153 22600883.575 -11870571.430 10 0 60757 67500.00000 0 -995392.755 23868620.230 -9045146.419 10 0 60757 68400.00000 0 -1088148.277 24799412.735 -6044748.752 10 0 60757 69300.00000 0 -1066406.141 25361451.622 -2927472.389 10 0 60757 70200.00000 0 -980289.030 25534705.313 246388.062 10 0 60757 71100.00000 0 -882692.061 25311726.974 3415490.423 10 0 60757 72000.00000 0 -826812.237 24697958.434 6518614.645 10 0 60757 72900.00000 0 -863668.430 23711519.477 9495827.846 10 0 60757 73800.00000 0 -1039715.235 22382491.750 12289623.690 10 0 60757 74700.00000 0 -1394650.056 20751726.932 14846015.608 10 0 60757 75600.00000 0 -1959504.793 18869228.012 17115564.359 10 0 60757 76500.00000 0 -2755101.937 16792169.687 19054321.555 10 0 60757 77400.00000 0 -3790940.133 14582638.464 20624672.166 10 0 60757 78300.00000 0 -5064556.913 12305184.435 21796060.657 10 0 60757 79200.00000 0 -6561397.073 10024284.333 22545587.257 10 0 60757 80100.00000 0 -8255194.648 7801819.432 22858462.783 10 0 60757 81000.00000 0 -10108855.522 5694671.484 22728312.690 10 0 60757 81900.00000 0 -12075807.151 3752535.564 22157323.314 10 0 60757 82800.00000 0 -14101762.354 2016040.312 21156225.853 10 0 60757 83700.00000 0 -16126826.650 515254.002 19744116.348 10 0 60757 84600.00000 0 -18087863.644 -731360.649 17948112.840 10 0 60757 85500.00000 0 -19921021.375 -1717498.169 15802854.016 99